Location: Unspecified
(11.8170°N, 0.0000°E)
Time: 16:47:12
(UTC+00:00)

ISS - Visible Passes

Search period start: 19 April 2019 00:00
Search period end: 29 April 2019 00:00
Orbit: 408 x 410 km, 51.6° (Epoch: 20 April)

Date Brightness Start Highest point End Pass type
(mag) Time Alt. Az. Time Alt. Az. Time Alt. Az.
20 Apr -1.0 05:14:24 10° SSE 05:16:39 17° SE 05:18:54 10° E visible
22 Apr -3.7 05:08:12 10° SSW 05:11:29 77° SE 05:14:46 10° NE visible
23 Apr -2.0 04:19:44 23° SSE 04:20:45 27° SE 04:23:36 10° ENE visible
24 Apr -2.4 05:04:29 15° W 05:06:20 23° NW 05:09:02 10° N visible
25 Apr -3.0 04:16:18 44° N 04:16:18 44° N 04:18:46 10° NNE visible
27 Apr -1.0 04:12:19 10° NNW 04:12:19 10° NNW 04:12:21 10° NNW visible
